Regional Weather Roundup
Issued by NWS

Home | Current Version | Previous Version | Graphics & Text | Print | Product List | Glossary On
Versions: 1 2 3 4 5 6 7 8 9 10 11 12 13 14 15 16 17 18 19 20 21 22 23 24 25 26 27 28 29 30 31 32 33 34 35 36 37 38 39 40 41 42 43 44 45 46 47 48 49 50
000
ASUS43 KBIS 050010
RWRND

NORTH DAKOTA REGIONAL WEATHER ROUNDUP
NATIONAL WEATHER SERVICE BISMARCK ND
700 PM CDT TUE AUG 04 2015

NOTE: "FAIR" INDICATES FEW OR NO CLOUDS BELOW 12,000 FEET WITH NO
SIGNIFICANT WEATHER AND/OR OBSTRUCTIONS TO VISIBILITY.


NDZ001>003-009>011-017-050100-
NORTHWEST NORTH DAKOTA

CITY           SKY/WX    TMP DP  RH WIND       PRES   REMARKS
WILLISTON      PTSUNNY   88  54  31 SE12      29.87F
6HR MIN TEMP:  83; 6HR MAX TEMP:  91;

MINOT          MOSUNNY   81  49  32 E9        29.94F
MINOT AFB      PTSUNNY   82  50  33 E15       29.93F
$$

NDZ018>021-031>035-040>046-050100-
SOUTHWEST NORTH DAKOTA

CITY           SKY/WX    TMP DP  RH WIND       PRES   REMARKS
BISMARCK       SUNNY     85  56  37 SE7       29.92F
6HR MIN TEMP:  81; 6HR MAX TEMP:  87;

DICKINSON      MOSUNNY   83  56  39 SE15G23   29.91F
GARRISON         N/A     80  58  46 E9        29.93F
6HR MIN TEMP:  77; 6HR MAX TEMP:  82;

HETTINGER ARPT MOSUNNY   84  51  31 SE12G22   29.93F
$$

NDZ004>008-012>016-024-026-027-054-050100-
NORTHEAST NORTH DAKOTA

CITY           SKY/WX    TMP DP  RH WIND       PRES   REMARKS
GRAND FORKS    SUNNY     76  52  43 N7        29.99F
GRND FRKS AFB  SUNNY     74  52  46 N7        30.00F
DEVILS LAKE      N/A    N/A N/A N/A MISG        N/A
$$

NDZ022-023-025-028>030-036>039-047>053-050100-
SOUTHEAST NORTH DAKOTA

CITY           SKY/WX    TMP DP  RH WIND       PRES   REMARKS
FARGO          SUNNY     79  50  36 N6        29.98F
6HR MIN TEMP:  77; 6HR MAX TEMP:  82;

JAMESTOWN      SUNNY     77  55  46 E8        29.98F
$$



USA.gov is the U.S. government's official web portal to all federal, state and local government web resources and services.